Wind_Speed
44 45 45 46 46 47 46 46 47 47 48 49 49 49 49 48 48 48 47 45 42 40 38 37 37 37 38 38 38 36 34 33 32 31 31 30 29 28 28 28 28 29 30 31 31 32 33 34 35 35 36 37 38 38 39 39 40 41 42 42 43 44 44 45 46 46 47 47 48 49 50 52 53 54 55 56 57 57 57 56 56 55 55 53 52 51
44 44 45 46 46 47 47 47 48 49 49 50 50 50 49 49 48 48 47 45 43 41 39 38 37 38 38 38 37 36 34 33 32 31 30 29 28 28 27 27 28 28 29 30 31 32 33 33 34 35 35 36 37 38 39 40 41 42 43 44 45 46 47 48 49 49 49 49 50 50 51 52 53 54 55 56 56 56 56 55 55 54 52 51 50 50
43 44 46 47 48 49 49 49 50 50 50 51 51 50 49 48 47 46 45 44 42 41 39 38 37 37 37 37 36 35 34 33 33 32 31 30 29 28 28 28 28 29 30 30 31 32 32 33 33 34 35 36 36 38 39 40 41 42 43 44 46 47 49 50 51 51 51 51 51 51 52 52 53 54 55 55 56 55 55 54 53 52 50 49 49 50
43 46 49 51 53 53 52 51 50 49 48 48 47 46 45 44 43 42 41 40 40 39 39 39 38 38 36 35 34 34 34 34 34 33 32 30 29 28 28 28 28 29 30 30 31 31 32 32 33 34 34 35 36 37 37 38 40 41 42 44 46 48 50 52 52 53 52 52 52 52 53 53 53 54 54 55 55 54 53 52 50 49 48 48 48 49
42 44 47 49 50 50 48 46 44 42 41 40 40 39 38 37 37 36 35 35 36 38 39 40 40 39 37 35 33 33 33 34 34 33 32 30 29 28 27 28 28 29 30 30 31 31 31 32 33 33 34 35 35 36 37 38 39 40 42 44 46 48 50 51 52 52 52 52 52 52 53 54 54 54 54 54 53 52 51 49 48 47 47 47 48 49
37 36 37 39 39 39 38 37 35 34 34 33 33 33 33 33 32 32 32 32 33 35 37 39 41 40 38 36 33 32 32 33 33 33 32 30 28 27 27 28 29 29 30 31 31 31 31 32 32 33 34 34 35 35 36 37 39 40 42 44 46 48 49 50 50 50 50 51 52 53 53 54 54 54 53 52 51 50 48 47 46 46 46 47 48 49
30 29 29 30 31 31 31 31 31 30 30 30 31 31 32 32 32 32 32 32 32 33 35 37 39 39 39 37 35 34 33 33 34 33 33 31 30 29 29 29 30 31 32 32 32 32 32 32 32 33 33 33 34 35 36 37 39 41 43 45 46 47 48 49 49 49 49 50 51 53 53 54 53 53 51 50 49 47 46 45 44 45 45 47 48 50
30 29 28 29 29 29 30 30 30 31 31 31 31 32 33 33 33 33 33 32 33 33 34 35 36 37 37 37 37 36 36 36 37 37 37 35 34 32 32 32 32 33 33 34 34 33 32 32 32 32 33 33 34 35 36 38 40 42 44 45 46 47 48 48 48 48 49 50 51 52 53 53 52 51 49 48 46 45 44 43 43 44 45 47 48 50
34 33 32 32 31 31 32 32 32 32 33 33 33 34 34 35 35 35 34 34 34 34 35 35 35 36 36 37 37 38 39 41 42 42 40 37 36 34 34 33 34 34 35 35 35 34 33 33 32 33 33 34 35 36 38 39 41 43 45 45 46 47 47 47 47 48 49 50 51 52 52 51 50 48 47 45 44 42 42 42 43 44 45 47 48 50
39 38 37 36 35 34 34 34 35 35 34 35 35 35 35 36 36 36 36 36 36 36 36 36 36 36 36 37 38 40 42 43 43 42 39 37 35 34 34 34 34 35 36 36 36 35 34 34 33 34 34 35 36 38 39 41 43 44 45 46 47 47 47 47 47 48 49 50 51 51 50 48 47 45 44 42 41 41 41 41 42 44 45 47 49 50
42 41 40 39 38 37 36 36 36 36 36 36 37 37 37 37 37 37 37 37 37 37 37 37 37 37 38 38 40 41 43 43 43 41 38 36 35 34 34 34 35 36 36 37 37 36 35 34 34 35 36 37 38 39 41 42 44 45 46 47 47 47 47 46 47 48 49 49 49 48 47 45 44 42 41 40 39 39 40 41 42 44 45 47 49 51
42 42 42 41 40 40 39 38 37 37 38 38 38 38 38 38 38 38 38 38 38 39 39 39 39 39 39 40 41 42 43 42 41 39 37 36 35 35 35 35 36 36 37 37 37 36 35 35 35 36 37 38 39 40 42 43 45 46 46 46 46 46 46 46 47 47 48 48 47 46 44 42 41 39 38 38 38 38 39 41 42 44 46 47 49 51
42 43 43 43 42 42 41 41 40 40 40 40 40 40 39 39 39 39 40 40 41 41 41 41 41 40 40 41 41 42 41 40 38 37 36 36 36 36 36 36 36 36 37 37 37 36 35 35 35 36 37 38 39 41 43 45 46 46 46 46 46 46 46 46 46 46 46 45 44 42 40 39 38 37 36 36 37 38 39 41 42 44 46 47 49 52
40 43 44 45 44 44 43 43 43 43 42 42 41 41 40 40 40 41 41 42 42 42 43 43 42 42 41 41 41 40 39 38 36 35 35 36 36 36 36 36 36 36 36 36 36 35 34 34 35 36 37 38 39 42 44 46 46 46 46 46 45 45 45 45 45 44 44 42 41 39 37 36 35 35 35 35 36 38 39 41 42 44 46 48 50 52
39 42 45 47 47 47 46 45 44 44 44 43 43 42 42 42 42 42 42 42 43 43 43 43 43 42 41 40 40 39 38 37 35 35 35 36 36 35 35 34 34 34 34 34 34 33 33 33 34 35 36 38 41 44 46 46 46 45 45 45 45 44 44 43 43 42 41 39 37 36 34 33 33 33 34 35 36 38 39 41 43 44 46 48 50 53
37 41 45 48 49 49 49 48 47 46 46 45 45 45 44 44 44 43 43 43 43 43 42 42 42 41 41 40 39 38 37 36 36 35 35 35 35 33 33 33 32 32 32 32 32 31 31 32 33 35 38 41 44 45 45 45 44 44 44 44 43 43 42 41 40 39 37 36 34 33 32 31 32 32 33 35 36 38 40 41 43 44 46 48 51 53
37 40 44 47 49 50 50 49 49 48 48 48 47 47 47 46 46 45 44 43 42 42 41 41 40 40 40 40 39 38 37 36 35 35 34 34 32 31 30 30 30 30 29 29 29 29 31 32 35 38 41 42 43 43 42 42 42 42 42 42 41 41 40 39 38 36 34 32 31 30 30 30 31 32 33 35 36 38 40 41 43 45 47 49 51 54
37 39 42 44 46 47 48 48 48 48 48 48 48 48 48 47 46 45 44 43 42 41 40 40 40 40 40 40 39 37 36 35 34 34 32 31 30 29 28 28 27 27 27 27 28 30 32 35 38 39 40 40 40 40 40 40 40 40 40 40 39 39 38 36 34 32 31 30 29 29 29 29 31 32 33 35 36 38 40 41 43 45 47 49 52 54
36 38 39 41 42 43 44 44 45 45 46 46 46 46 46 45 44 43 42 41 41 40 40 40 40 40 40 39 37 36 34 33 33 31 29 28 27 26 25 25 25 25 26 28 30 32 34 36 37 38 37 37 37 37 38 38 39 39 39 38 38 36 35 33 31 29 28 28 27 27 28 29 30 32 33 35 36 38 40 41 43 45 47 50 52 55
36 37 37 38 38 39 40 40 40 40 41 42 42 42 42 42 41 40 40 40 40 40 40 40 40 39 38 37 35 33 32 31 30 29 27 26 25 24 23 23 24 25 27 29 31 33 34 35 35 35 34 35 35 36 36 37 37 37 37 37 35 33 31 29 28 27 26 26 26 27 28 29 30 32 33 35 37 38 40 42 43 46 48 50 53 54
35 36 37 36 36 37 37 37 37 37 37 38 38 38 39 39 39 39 39 39 39 39 38 38 37 36 34 33 32 31 30 29 28 26 25 24 23 23 22 23 24 26 28 30 31 32 33 33 32 32 33 33 34 35 36 36 36 36 35 34 32 30 28 27 26 25 25 25 25 26 27 29 30 32 33 35 37 38 40 42 44 46 48 51 53 54
33 35 36 36 36 35 35 35 35 36 36 36 36 37 37 37 38 38 38 37 37 36 35 34 33 32 31 30 29 28 28 27 26 24 23 22 22 21 22 22 24 26 28 30 30 31 31 31 31 31 32 33 34 34 35 35 35 34 33 31 29 27 26 25 24 24 24 24 25 26 27 29 30 32 34 35 37 38 40 42 44 46 48 51 53 54
30 32 34 35 35 35 35 35 35 35 35 35 35 34 34 33 33 33 33 33 32 31 30 29 29 28 28 27 27 26 25 24 23 23 22 21 20 21 22 23 25 27 28 29 29 29 29 29 30 30 31 32 33 34 34 34 33 32 30 28 26 25 24 23 23 23 23 23 24 26 27 29 30 32 34 35 37 38 40 42 44 46 49 51 52 53
28 29 31 32 33 34 34 33 33 32 31 30 28 26 24 23 22 22 23 24 25 26 25 25 25 25 24 24 24 23 23 22 22 21 20 20 20 21 23 24 26 27 28 28 28 28 28 29 29 31 31 32 33 33 33 32 31 29 27 25 24 23 22 22 21 22 22 23 24 26 27 29 31 32 34 35 37 39 40 42 45 47 49 50 51 52
26 26 27 28 28 28 27 26 25 23 22 20 18 15 14 12 12 12 12 14 16 18 19 20 20 21 21 21 21 21 21 21 21 20 20 20 21 22 24 25 26 27 27 27 27 27 28 29 30 31 32 32 32 32 31 30 28 27 25 23 22 21 21 21 21 21 21 23 24 26 28 29 31 32 34 35 37 39 41 43 45 47 49 50 51 50
24 23 22 22 21 20 18 17 16 15 14 13 12 11 9 9 8 8 8 8 10 11 13 14 15 16 17 18 18 19 19 19 19 19 20 20 22 23 24 25 25 25 26 26 26 27 28 29 30 31 32 32 31 30 29 28 26 24 23 21 21 20 20 20 20 20 21 23 24 26 28 29 31 32 34 35 37 39 41 43 45 47 48 49 49 49
24 22 20 18 17 16 16 15 14 13 12 11 11 10 10 9 9 8 8 8 8 9 9 10 11 12 13 14 15 15 15 16 16 17 19 20 21 22 23 23 24 24 25 25 26 27 28 29 30 31 31 30 29 28 27 25 24 22 21 20 20 19 19 19 19 20 21 23 25 26 28 29 31 32 34 35 37 39 41 43 45 47 48 48 48 47
27 25 23 21 20 19 18 18 16 15 14 13 13 12 12 12 11 11 11 10 10 10 10 10 11 11 12 12 13 13 14 14 15 16 17 19 21 22 22 23 23 24 25 26 26 27 28 29 30 30 29 29 28 26 25 23 22 21 20 19 18 18 18 18 19 20 21 23 25 26 28 29 31 32 34 35 37 39 41 43 45 46 47 47 47 45
32 30 28 26 24 23 23 22 21 19 18 18 17 16 16 15 15 15 14 13 13 13 12 12 12 13 13 14 14 14 15 15 16 17 18 19 21 22 22 23 24 24 25 26 27 28 29 29 29 29 28 27 26 25 23 22 20 19 19 18 17 17 17 17 19 20 22 23 25 27 28 29 31 32 34 35 37 39 41 43 44 46 46 46 45 42
37 35 33 31 29 28 27 26 25 24 23 22 22 21 20 20 19 19 18 17 17 16 15 15 14 15 15 15 16 16 17 18 18 18 19 21 22 23 23 24 24 25 26 27 28 29 29 29 28 28 27 26 25 23 22 20 19 18 17 17 16 16 16 17 19 20 22 24 25 27 28 29 31 32 33 35 37 39 41 42 44 45 45 44 42 40
42 40 39 37 35 33 32 30 29 28 27 26 26 25 25 25 24 23 22 21 20 19 18 17 17 17 17 17 18 19 19 20 20 20 21 22 23 24 24 25 25 26 26 27 28 29 29 28 28 27 26 25 24 22 20 19 17 17 16 16 15 16 16 17 19 21 22 24 25 27 28 29 30 32 33 35 37 39 41 42 43 44 44 42 40 36
46 45 43 42 40 38 37 35 34 32 31 30 30 29 29 28 28 27 26 25 23 22 21 20 19 19 19 20 20 21 21 21 21 22 22 24 24 24 25 25 26 27 27 28 29 29 28 28 27 27 26 24 23 21 19 17 16 16 15 15 15 15 16 18 19 21 22 24 25 27 28 29 30 32 33 35 37 38 40 42 42 43 42 40 37 33
49 48 47 46 44 43 41 40 38 37 36 35 34 33 32 32 31 30 29 28 26 25 24 23 22 22 21 22 22 23 23 23 23 23 24 25 25 26 26 26 27 28 28 29 29 29 29 28 27 25 24 23 21 19 17 16 15 15 15 14 15 15 16 18 19 21 23 24 25 26 28 29 30 32 33 35 37 38 40 41 42 41 40 38 34 30
52 51 50 49 48 46 45 44 42 41 40 39 38 37 36 35 34 33 31 30 28 27 27 26 25 24 24 24 24 24 24 24 24 25 25 26 26 27 27 28 28 29 29 30 30 30 29 28 26 24 22 20 19 17 16 15 15 14 14 14 15 16 17 18 20 21 23 24 25 26 27 29 30 32 33 35 36 38 39 40 41 40 38 35 31 26
54 54 53 52 51 50 48 47 45 44 43 42 41 40 39 38 36 35 33 31 30 29 29 28 28 27 26 26 26 26 26 26 26 26 27 27 28 28 28 29 29 29 30 30 30 30 28 27 25 22 19 18 17 16 15 14 14 14 14 14 15 16 17 18 20 21 23 24 25 26 27 29 30 31 33 34 36 37 39 39 39 38 36 33 28 23
54 55 55 55 54 52 51 49 47 46 45 44 43 42 41 39 38 36 34 33 32 31 30 30 29 28 28 28 27 27 27 27 27 28 28 28 28 29 29 30 30 30 30 31 30 29 27 25 23 20 18 16 15 15 15 14 14 14 14 14 15 16 17 18 20 21 23 24 25 26 27 28 30 31 33 34 36 37 38 38 38 36 34 30 25 19
52 54 55 55 55 54 52 50 49 47 46 45 44 43 42 40 38 37 35 34 33 32 32 31 30 30 29 29 28 28 28 28 28 29 29 30 30 30 30 30 30 30 31 30 30 28 26 23 20 18 16 15 14 14 14 14 14 14 14 14 15 16 17 19 20 21 22 23 24 26 27 28 30 31 33 34 35 36 37 37 36 34 31 27 22 16
50 52 53 54 54 54 53 51 49 48 46 45 44 43 41 40 38 37 36 35 34 33 33 32 31 31 30 30 29 29 29 29 30 30 31 31 31 31 31 31 31 31 31 30 29 27 24 21 18 16 15 14 14 15 14 14 14 14 14 14 15 16 17 19 20 21 22 23 24 25 27 28 29 31 32 34 35 36 36 36 35 32 28 24 18 12
47 49 51 52 53 53 52 51 50 48 47 45 44 42 41 40 38 37 36 35 34 33 33 32 32 31 31 31 30 30 30 31 31 31 32 32 32 32 32 31 31 31 31 30 28 25 22 19 17 15 14 14 14 14 14 14 14 14 14 15 15 16 17 19 20 21 22 23 24 25 26 28 29 30 32 33 34 34 35 34 32 29 25 21 15 9
44 45 47 49 50 51 51 50 49 48 47 45 44 43 41 40 38 37 36 35 34 33 33 32 32 32 32 31 31 31 31 32 32 32 32 33 32 32 32 32 31 31 30 29 26 23 21 18 17 15 15 14 14 14 14 14 14 14 14 15 16 16 17 19 20 21 21 22 23 25 26 27 29 30 31 32 33 33 33 32 30 26 22 18 12 5
41 42 44 45 47 48 49 49 48 47 45 44 43 42 41 40 38 37 36 35 34 33 33 33 32 32 32 32 32 32 32 33 33 33 33 33 33 32 32 32 31 31 29 27 24 22 19 17 16 15 15 14 15 15 14 14 14 14 14 15 16 17 17 18 19 20 21 22 23 24 26 27 28 29 30 31 32 32 32 30 27 24 20 15 9 2
39 40 41 42 43 44 46 46 46 45 44 43 42 41 40 39 38 37 36 35 34 34 33 33 33 33 33 33 33 33 33 33 34 34 33 33 33 33 32 32 31 30 28 25 23 20 18 17 16 15 15 15 15 15 15 14 14 14 14 15 16 17 18 18 19 20 21 22 23 24 25 26 27 29 30 30 31 31 31 28 25 21 17 12 6 0
39 39 39 40 41 42 42 43 43 43 43 42 41 40 40 38 37 36 35 35 34 34 33 33 33 33 33 33 33 33 33 34 34 34 33 33 33 33 32 32 31 30 27 24 21 19 18 16 16 15 15 15 15 15 15 14 14 14 14 15 16 17 18 18 19 19 20 21 22 24 25 26 27 28 29 29 30 30 29 26 23 18 14 9 4 2
39 39 39 39 39 40 40 41 41 41 41 41 40 40 39 37 36 35 35 34 34 34 33 33 33 33 33 34 33 33 34 34 34 34 34 33 33 33 32 32 31 29 26 23 21 19 17 17 16 16 15 15 15 15 15 15 14 14 14 15 16 17 17 18 18 19 20 21 22 23 24 25 26 27 28 28 29 28 27 24 20 15 12 7 2 4
39 38 38 38 39 39 39 40 41 41 40 40 40 39 38 37 36 35 35 34 34 34 34 34 34 34 34 34 34 34 34 34 34 34 34 34 33 33 32 31 29 27 25 22 20 18 18 17 17 16 16 16 16 16 15 15 14 14 15 15 16 16 17 18 18 19 20 21 22 23 24 25 26 26 27 27 27 26 25 21 17 13 9 4 2 5
37 37 38 38 38 39 40 40 40 40 40 39 39 38 37 36 36 35 35 34 34 34 34 34 34 35 35 35 34 34 34 35 35 34 34 34 34 33 32 30 28 26 23 21 19 18 18 18 18 17 17 16 16 16 15 15 15 15 15 15 16 16 17 17 18 18 19 20 21 22 23 24 25 25 25 26 26 24 22 18 14 10 6 2 4 6
36 36 37 38 38 39 40 40 40 39 39 39 38 37 37 36 36 35 35 35 35 35 35 35 35 35 35 35 35 35 35 35 36 35 35 34 34 33 32 30 28 25 23 20 19 18 18 18 18 18 17 17 16 16 15 15 15 15 15 15 16 16 17 17 17 18 19 20 21 22 23 23 24 24 24 25 24 22 20 16 12 8 4 2 5 7
36 36 37 38 38 39 39 39 39 39 39 38 38 37 37 36 36 36 36 35 35 35 35 35 35 35 35 36 36 36 36 36 36 36 36 35 34 33 32 30 27 25 22 20 19 19 19 19 19 18 18 17 17 16 15 15 15 15 15 16 16 16 16 16 17 18 18 19 20 21 22 22 23 23 23 23 22 20 17 13 9 6 3 4 7 8
36 36 37 37 37 38 38 39 39 38 38 38 37 37 37 37 36 36 36 36 35 35 35 35 35 35 36 36 37 37 37 37 37 37 36 35 34 33 31 30 27 24 22 20 20 20 20 20 20 19 18 17 17 16 16 15 15 15 15 15 16 16 16 16 16 17 18 19 20 20 21 22 22 22 22 22 20 17 14 10 7 4 3 6 8 9
35 35 35 35 35 36 36 37 37 37 37 37 37 37 37 37 37 36 36 36 36 36 36 36 36 36 37 38 38 38 38 38 38 37 37 35 34 33 31 29 27 25 23 22 21 21 21 20 20 19 18 18 17 16 16 15 15 15 15 15 15 15 16 16 16 17 17 18 19 20 20 21 21 21 21 20 18 15 11 7 4 3 4 8 10 9
33 33 33 33 33 34 34 34 34 35 35 35 36 36 36 36 36 37 36 36 36 36 36 37 37 38 38 39 39 39 39 39 39 38 37 35 34 33 31 29 27 25 23 23 22 22 21 20 20 19 18 18 17 17 16 15 15 15 15 15 15 15 15 15 16 16 17 18 18 19 20 20 20 20 20 19 16 13 9 5 3 4 6 9 11 10
Wind_Direction
235 236 237 239 240 242 244 246 248 249 250 252 255 258 261 264 265 264 262 261 261 260 256 253 252 251 251 251 252 253 254 255 256 258 260 262 264 265 267 269 271 273 276 278 280 281 282 283 283 283 283 284 285 287 288 288 289 290 291 292 293 293 294 294 295 296 297 298 300 301 302 303 304 305 306 308 309 311 312 313 314 315 315 316 316 317
236 238 239 240 242 244 246 248 249 251 253 256 259 262 263 264 263 261 260 258 257 256 253 252 251 251 252 252 253 253 254 255 256 257 258 259 260 261 263 265 268 270 273 276 278 280 280 281 282 282 284 285 287 288 289 290 290 290 291 291 292 292 292 292 292 293 295 297 299 301 303 303 304 305 307 308 310 311 312 313 314 315 315 316 316 317
239 242 244 246 247 248 250 251 253 255 257 260 262 263 263 261 260 259 257 256 255 253 251 251 251 252 253 253 254 253 253 254 254 255 255 256 256 258 260 263 267 270 273 275 277 278 279 280 281 282 283 285 287 288 289 290 290 290 290 291 292 292 292 292 291 292 293 295 298 300 302 303 304 305 307 308 310 311 312 314 314 315 315 316 316 317
240 244 247 249 251 252 253 254 255 257 259 260 260 260 258 257 256 256 255 255 254 252 251 251 251 252 254 254 254 254 253 253 253 253 253 253 255 257 260 264 268 271 273 275 276 277 278 279 280 282 283 285 286 287 288 288 289 290 290 291 292 293 293 292 292 292 293 294 297 300 302 303 304 305 307 308 310 311 313 314 314 315 315 316 317 318
241 244 246 247 248 249 250 251 252 253 253 254 253 252 252 251 252 252 253 253 253 253 253 252 253 253 254 255 255 255 254 253 253 252 251 251 254 257 262 266 270 273 275 276 277 277 278 279 280 282 283 284 285 286 287 288 289 290 291 292 292 293 293 293 293 293 294 295 297 299 301 303 304 305 307 308 310 312 313 314 315 315 316 317 318 320
241 241 240 240 240 240 241 241 241 242 243 243 243 244 245 246 247 249 250 251 253 254 255 255 255 256 256 257 257 256 255 254 253 251 250 250 253 257 263 269 272 275 277 278 278 278 278 279 280 281 283 284 285 286 287 288 288 289 290 291 292 293 293 294 295 295 295 296 298 300 302 303 304 306 307 309 311 312 313 314 315 315 316 318 319 321
240 235 231 229 228 229 229 230 232 234 235 237 239 241 243 245 246 248 250 252 253 255 256 257 258 259 259 259 259 258 257 255 253 251 249 250 254 259 265 270 273 276 277 278 278 278 278 279 280 281 282 283 285 285 286 287 288 289 290 290 292 293 294 296 296 297 297 297 299 301 302 304 305 307 309 310 312 313 314 314 315 316 317 319 321 323
240 233 228 225 223 224 225 227 230 233 235 238 240 242 244 247 248 250 251 253 254 256 258 259 261 262 263 263 262 261 259 257 255 254 255 256 259 263 267 271 274 276 277 278 278 278 278 278 279 280 281 283 284 285 286 287 288 288 289 291 293 295 297 298 298 298 298 298 300 302 303 305 306 308 310 311 312 313 314 315 316 317 318 321 323 324
242 237 233 229 227 226 227 229 231 234 237 240 242 244 246 248 250 251 252 253 255 256 258 260 262 264 266 266 266 264 263 262 262 263 264 266 268 269 270 272 274 276 277 278 278 278 277 277 278 279 280 282 283 284 286 287 287 289 291 293 296 298 299 299 299 298 298 299 301 303 305 306 308 309 311 312 312 313 314 315 316 318 320 323 324 326
244 242 239 237 234 232 231 232 233 235 238 241 244 246 248 250 251 252 253 254 255 257 259 261 263 265 267 268 268 267 267 267 269 272 274 275 274 273 272 273 275 276 278 279 278 278 277 277 277 278 279 281 282 284 285 287 288 291 293 297 299 300 300 300 299 298 299 301 303 304 306 307 309 310 311 312 313 314 314 316 318 320 322 324 325 327
245 244 242 241 239 238 236 236 235 236 238 241 244 246 249 251 253 254 256 256 257 259 261 262 264 266 268 269 269 269 270 272 274 277 278 278 277 276 275 275 276 278 279 279 279 278 277 276 277 277 279 280 282 284 286 288 290 293 296 299 301 301 300 299 299 299 300 302 304 306 307 309 310 311 311 312 313 314 315 317 320 322 324 325 326 327
243 241 240 240 239 239 239 239 239 239 240 242 244 246 249 251 254 256 258 259 261 262 263 265 266 268 269 269 270 271 272 274 276 278 278 278 277 277 277 277 277 278 279 279 278 277 277 276 276 277 278 280 282 284 287 290 292 296 298 300 300 300 299 299 299 300 302 304 305 307 308 309 310 311 311 312 313 315 317 320 322 324 325 326 327 328
239 238 237 236 237 238 239 240 241 241 242 243 244 246 249 251 254 256 258 260 262 263 264 266 267 268 268 269 270 272 273 275 275 276 276 277 278 278 278 277 277 278 278 278 277 276 276 276 276 277 278 280 283 286 289 292 295 297 298 299 298 298 298 298 299 301 303 305 307 308 309 310 310 311 311 312 314 316 319 322 324 325 326 327 328 328
237 236 236 236 236 237 238 239 240 241 242 243 244 246 248 250 253 255 257 259 260 262 263 265 266 267 267 268 270 272 273 274 274 274 275 276 277 278 277 276 276 276 276 275 275 275 276 277 277 278 280 282 285 289 292 294 296 297 297 297 296 297 297 298 300 302 305 307 308 308 309 309 310 311 312 313 316 319 321 323 325 326 327 328 328 329
234 234 235 236 237 239 240 240 241 241 242 243 245 246 248 250 251 253 255 257 258 260 261 263 264 265 266 267 269 271 272 272 272 272 273 275 275 276 275 274 274 273 273 274 274 275 276 277 279 280 282 285 288 291 293 295 295 295 295 295 295 296 297 299 302 304 306 307 308 308 308 309 310 311 313 315 318 321 323 325 326 327 328 328 329 330
234 232 233 235 237 238 240 241 242 242 243 244 246 247 249 250 252 253 254 255 257 258 259 261 262 263 264 266 268 270 270 270 270 271 271 272 272 271 271 271 271 271 271 273 274 276 278 279 281 283 286 289 291 292 293 293 293 293 293 294 295 297 299 301 304 306 307 307 307 307 308 309 310 312 314 318 321 323 325 326 327 328 328 329 330 330
234 232 232 234 236 238 240 241 242 243 245 246 247 249 250 252 253 254 254 255 256 257 258 259 261 262 264 266 267 268 268 268 267 267 267 267 267 266 267 267 268 270 271 273 276 279 281 283 285 287 289 290 291 291 291 291 291 291 292 294 296 298 301 303 305 306 306 306 306 306 307 309 311 314 317 320 323 324 326 326 327 328 329 330 331 331
233 232 232 234 235 237 239 241 243 244 246 247 249 250 251 252 253 253 254 254 255 256 257 259 260 262 264 266 266 265 265 264 262 261 261 261 261 262 263 265 267 270 272 276 279 282 284 285 286 287 288 288 288 288 289 289 290 291 293 295 297 300 302 304 305 305 305 305 305 306 307 310 313 316 319 322 324 325 326 327 328 329 330 331 332 332
233 232 232 233 234 236 238 240 242 244 245 247 249 250 251 252 252 252 253 254 255 256 257 259 260 261 262 263 262 261 259 257 256 255 254 255 256 258 261 264 267 271 275 279 282 283 284 283 283 283 284 285 286 287 288 289 290 291 293 296 299 301 303 304 304 304 303 303 304 306 308 312 315 319 322 324 325 326 327 328 329 330 331 332 332 333
233 231 231 231 233 234 236 238 240 242 244 246 247 248 249 250 250 251 252 253 254 255 256 257 258 259 259 259 257 255 253 251 250 249 250 251 254 257 260 264 269 273 277 279 280 280 279 278 279 280 281 283 285 286 287 288 290 292 295 297 300 302 303 303 302 302 302 302 304 307 310 314 318 321 323 325 326 327 328 329 330 331 332 333 333 333
232 231 230 230 231 232 234 236 238 240 242 243 245 246 247 247 248 249 250 251 252 253 254 255 255 255 254 253 251 249 247 246 246 246 248 250 253 256 260 265 270 273 276 276 275 274 274 275 276 279 281 283 284 285 287 289 291 293 296 299 300 301 301 300 300 300 301 302 305 309 313 317 320 323 325 326 327 328 329 330 331 332 333 333 334 334
232 230 229 229 229 230 232 233 235 237 239 241 242 243 245 246 246 247 248 249 250 250 251 251 250 249 248 246 245 244 243 243 244 246 248 251 254 257 261 265 268 270 271 271 270 271 272 274 277 279 281 283 284 286 287 290 292 295 297 299 299 299 298 298 298 299 300 303 307 312 316 320 322 324 326 327 328 329 330 331 332 333 334 334 335 335
233 229 228 227 227 228 229 231 233 235 237 239 240 242 243 245 246 246 247 247 247 246 246 245 244 242 241 241 240 240 240 241 244 247 249 252 255 259 261 264 265 266 267 267 269 270 273 275 278 280 282 283 285 287 289 291 294 296 297 298 297 297 296 296 296 298 301 305 310 315 318 321 324 325 326 327 328 330 331 332 333 334 335 335 335 336
236 231 228 227 227 227 228 228 230 231 233 234 235 236 238 240 242 244 245 244 243 241 240 238 237 237 237 237 237 238 240 241 244 248 250 253 255 258 260 262 263 264 265 267 269 272 275 277 279 281 282 284 286 288 290 292 294 295 295 295 295 294 294 294 295 298 303 308 313 317 320 323 325 326 327 328 329 331 332 333 334 335 335 336 336 336
239 234 231 228 227 225 225 224 224 223 223 223 223 222 223 225 229 232 235 236 235 234 233 232 232 232 233 234 236 238 240 242 245 248 251 252 254 257 259 260 262 264 266 269 272 274 277 278 280 281 283 285 287 289 291 292 293 293 293 292 292 292 292 293 295 300 306 311 316 319 322 324 326 327 328 329 330 332 333 334 335 335 336 337 337 337
237 233 230 227 224 221 219 216 214 213 213 214 216 217 218 221 222 223 225 227 230 230 230 231 231 232 233 235 238 240 243 246 248 251 253 254 255 257 259 261 263 266 269 271 274 276 278 279 281 282 284 285 287 289 290 291 291 290 290 290 290 289 290 292 297 303 309 314 318 321 323 325 326 328 329 330 331 332 334 335 336 336 337 337 337 337
232 227 224 222 222 223 225 224 223 222 222 222 223 226 229 232 234 237 242 245 245 246 246 246 245 244 244 244 246 247 249 252 255 256 258 258 259 260 262 264 267 269 271 273 276 278 279 280 281 283 284 285 287 288 288 288 288 288 288 287 287 287 289 294 299 306 312 316 320 322 324 326 327 328 329 331 332 333 335 336 336 337 337 338 338 338
232 228 226 226 229 232 235 237 237 237 238 238 238 239 240 242 246 253 258 259 259 260 261 263 263 261 260 259 258 257 258 259 261 261 262 262 262 263 265 267 269 271 273 276 278 280 280 281 281 282 283 284 285 285 286 285 285 285 285 285 285 286 290 296 303 309 314 318 321 323 325 326 327 329 330 331 333 334 336 336 337 337 338 338 338 339
236 234 232 233 236 239 241 243 245 247 248 248 249 249 250 250 254 259 263 264 264 266 268 270 270 268 267 266 265 264 264 264 264 265 265 264 264 265 267 270 272 274 276 278 280 280 280 280 281 281 281 282 283 283 283 283 283 283 283 283 283 287 292 299 306 312 316 320 322 324 325 326 328 329 331 332 334 335 336 337 338 338 338 338 339 339
240 239 238 239 241 244 247 249 251 252 253 254 255 255 257 258 261 264 267 268 268 269 271 272 271 270 269 267 267 266 266 265 266 267 267 266 266 268 271 273 275 277 279 279 279 279 279 279 280 280 280 280 281 281 281 281 281 281 280 281 283 288 295 303 309 314 318 321 322 324 325 326 328 330 331 333 335 336 337 338 338 338 338 339 339 340
242 243 243 244 245 248 250 253 255 256 257 257 258 260 262 264 266 269 271 271 270 270 271 272 271 270 268 266 265 265 265 265 267 268 269 269 269 271 274 276 277 279 279 279 278 277 276 277 278 279 279 279 280 280 279 279 278 278 278 280 284 291 299 305 311 315 319 321 323 324 325 327 328 330 332 334 336 337 338 338 339 339 339 339 340 341
243 244 246 247 248 250 253 255 256 258 259 260 261 262 264 267 269 271 272 272 271 271 270 270 270 269 266 264 262 262 263 265 267 269 270 271 272 274 276 277 278 279 279 278 277 275 273 273 275 277 278 278 278 278 277 276 276 277 278 281 287 294 302 308 312 316 319 321 322 324 325 327 329 331 333 335 337 338 338 339 339 339 339 340 340 341
242 244 246 248 250 252 253 255 257 258 259 261 262 264 266 268 270 271 272 272 271 270 269 269 269 268 266 263 261 261 262 264 266 268 270 271 273 274 276 277 277 277 277 277 276 275 273 273 273 275 275 275 275 275 274 274 274 275 278 283 290 297 303 309 313 316 319 321 322 324 325 328 330 332 334 336 337 338 339 339 339 339 340 340 341 342
241 243 245 248 250 252 254 255 257 258 259 260 262 264 266 268 269 270 271 270 270 269 268 268 268 267 265 262 260 261 262 264 266 268 270 271 272 274 275 276 276 275 275 274 273 273 273 273 273 272 272 272 272 272 272 273 274 276 279 285 292 299 305 310 313 316 318 320 322 324 326 328 330 333 335 337 338 339 339 339 339 340 340 341 342 343
240 242 244 247 249 251 253 255 256 258 259 260 262 263 265 266 268 268 268 268 267 266 266 267 267 266 263 261 260 260 262 264 266 268 269 271 272 273 274 274 274 273 272 271 270 270 270 271 271 270 269 270 271 272 272 273 275 277 281 287 293 299 305 310 313 316 318 320 322 324 326 329 331 333 336 337 339 339 340 340 340 340 340 341 342 344
241 242 244 246 248 250 253 254 256 257 258 259 260 262 263 265 265 266 265 265 264 264 264 264 265 264 263 262 261 261 262 264 266 267 269 270 271 272 272 272 272 271 270 268 268 267 267 268 268 268 267 268 270 272 273 273 275 278 283 289 294 300 306 310 313 315 317 319 322 324 327 329 332 334 336 338 339 340 340 340 340 340 341 342 343 344
242 243 244 245 247 249 252 253 254 256 257 258 259 260 262 262 263 263 263 263 262 262 261 261 262 262 261 261 261 261 262 263 264 265 267 269 270 270 270 269 269 269 267 266 265 265 265 264 263 264 264 265 268 271 274 274 276 279 284 289 295 301 306 310 312 315 317 319 322 325 327 330 332 335 337 339 340 340 340 340 340 341 341 342 343 344
244 244 245 246 247 249 251 252 253 254 255 256 257 258 259 260 260 261 261 261 260 259 258 258 258 258 258 258 258 258 259 259 261 263 265 267 267 268 267 267 267 267 266 264 263 262 261 260 259 259 261 264 267 270 273 275 277 280 284 289 295 301 306 309 312 314 316 319 322 325 328 330 333 336 338 339 340 340 340 340 340 341 342 342 342 344
245 246 246 247 247 249 250 252 253 254 254 255 256 256 257 257 258 258 258 258 257 256 255 255 255 255 255 255 255 255 256 256 258 260 262 264 265 266 265 265 265 264 264 262 261 259 258 257 256 257 259 264 267 270 271 274 277 280 285 290 295 300 305 308 311 313 316 320 323 325 328 331 334 337 338 339 340 341 341 340 341 341 342 342 342 344
246 247 247 248 248 249 250 251 252 253 254 254 255 255 255 255 255 255 255 255 254 253 252 251 251 251 252 252 252 253 253 254 256 258 260 262 263 264 264 263 262 261 260 258 257 256 255 255 254 256 259 263 267 269 271 273 276 280 285 290 296 300 304 307 310 313 316 320 323 326 329 332 335 337 339 340 340 341 341 341 340 341 341 342 341 342
245 247 248 248 249 249 250 251 252 253 253 253 253 253 253 253 252 252 252 251 250 249 248 248 248 248 249 249 250 250 251 253 254 256 258 259 261 261 261 260 259 258 256 254 253 253 252 251 252 255 259 263 267 269 271 272 275 279 285 290 295 300 303 307 310 313 316 320 323 327 330 333 335 337 339 340 341 341 341 341 341 340 340 340 339 341
242 244 246 247 248 249 250 251 251 252 252 252 252 252 251 251 250 249 248 247 247 246 245 245 245 245 246 247 248 249 250 251 253 254 256 257 258 258 258 257 256 254 251 250 249 248 248 248 250 254 258 263 266 269 270 272 275 279 285 290 295 299 303 307 310 314 317 320 324 327 330 333 336 338 339 341 341 341 341 341 341 340 339 337 335 276
238 240 242 244 245 246 248 249 249 250 250 250 250 250 250 249 248 247 246 245 244 243 243 243 243 243 244 246 247 248 248 250 251 253 253 254 254 254 254 253 251 249 247 246 245 244 244 244 247 252 257 262 265 268 270 272 275 279 284 289 294 298 302 306 310 314 317 321 324 328 331 334 336 338 340 341 341 341 341 341 340 339 337 334 324 176
235 236 238 240 241 243 244 245 246 247 248 248 248 248 248 247 246 245 244 243 242 242 241 241 241 242 243 244 245 246 247 248 250 251 251 251 251 250 249 248 246 245 243 241 241 241 241 242 246 251 257 261 264 267 269 271 274 279 284 288 293 298 302 306 310 314 317 321 325 328 331 334 337 339 340 341 342 342 341 340 338 336 334 329 296 170
233 234 236 237 238 239 240 242 243 244 245 246 246 246 246 245 244 243 242 241 240 240 240 239 240 241 242 243 244 244 245 246 248 249 249 249 248 247 245 243 241 239 237 236 236 238 239 242 246 250 256 260 263 265 267 270 274 278 283 288 293 297 301 306 310 314 318 322 325 329 332 335 337 339 341 342 342 342 341 340 337 333 328 316 207 168
234 234 235 235 236 237 237 239 240 242 243 243 244 244 243 243 242 241 240 239 238 238 238 238 239 240 241 242 243 243 244 244 245 246 246 246 245 243 242 239 237 234 232 231 232 234 237 241 245 250 255 258 262 264 266 269 273 278 282 287 292 297 301 305 310 314 318 322 326 329 332 335 338 340 341 342 342 342 341 339 335 329 321 283 184 167
235 235 235 235 235 236 237 238 239 239 240 240 241 241 240 240 239 239 238 237 237 237 237 237 237 239 240 241 241 242 242 242 242 242 242 242 241 240 238 235 232 230 228 228 230 233 237 241 245 249 254 258 260 262 264 267 271 277 282 287 292 296 301 305 310 314 318 322 326 329 332 336 338 340 341 343 343 342 340 337 332 324 308 220 176 166
234 234 234 235 235 236 236 237 237 238 238 237 237 237 237 237 236 236 236 235 235 235 235 235 236 237 238 238 239 239 239 239 239 239 239 238 237 236 234 231 228 226 226 227 230 234 238 241 244 248 253 256 259 260 262 265 270 275 281 286 291 296 300 305 309 314 318 322 326 329 333 336 339 341 342 343 343 342 339 334 327 315 277 191 172 164
231 231 232 232 233 234 235 235 236 235 235 235 234 234 234 234 233 233 233 233 232 232 232 233 234 234 235 235 235 235 235 235 236 236 235 234 233 232 230 227 224 223 224 227 231 235 238 241 244 247 251 255 258 259 262 265 269 275 280 286 290 295 300 304 309 314 318 322 326 330 334 337 339 341 342 343 343 341 337 331 319 295 225 180 169 163
227 227 228 229 230 230 231 232 232 232 233 232 232 232 232 231 231 230 230 230 229 229 229 229 230 230 231 231 231 231 231 232 232 232 232 231 230 228 226 224 222 223 226 229 232 235 238 240 243 246 250 253 256 258 261 264 269 274 280 285 290 294 299 304 309 314 318 322 326 330 334 337 340 341 342 343 343 341 336 325 304 255 196 175 167 163
223 223 224 225 226 226 227 228 228 229 230 230 230 230 230 229 228 228 227 226 226 226 225 226 226 226 227 227 227 227 228 228 228 228 228 228 226 225 223 221 221 223 227 231 234 236 237 239 241 245 248 251 254 257 260 264 269 274 280 284 289 293 298 304 309 314 318 322 327 331 334 337 339 341 342 343 343 341 333 314 270 216 186 172 166 161
Height
5658 5658 5659 5660 5661 5662 5663 5664 5665 5665 5665 5666 5666 5667 5669 5670 5671 5671 5672 5675 5677 5678 5679 5679 5680 5680 5681 5682 5683 5684 5684 5685 5686 5686 5686 5687 5687 5687 5688 5688 5689 5689 5689 5689 5689 5689 5689 5689 5689 5688 5688 5688 5687 5687 5687 5687 5686 5686 5685 5684 5683 5682 5681 5680 5679 5678 5676 5675 5674 5673 5671 5670 5668 5666 5665 5662 5660 5658 5656 5653 5651 5649 5646 5644 5641 5638
5656 5657 5657 5658 5659 5660 5661 5662 5663 5663 5662 5663 5664 5665 5667 5668 5669 5669 5671 5672 5674 5676 5677 5677 5677 5678 5679 5680 5680 5681 5682 5682 5683 5683 5684 5684 5684 5685 5685 5686 5686 5686 5686 5686 5687 5687 5687 5686 5686 5686 5686 5686 5685 5685 5685 5684 5684 5683 5682 5681 5681 5680 5679 5678 5676 5675 5674 5673 5671 5670 5669 5667 5666 5664 5662 5660 5657 5655 5653 5651 5648 5646 5644 5641 5638 5636
5654 5655 5655 5655 5656 5656 5658 5659 5661 5661 5661 5661 5662 5664 5665 5666 5666 5667 5668 5670 5671 5673 5674 5675 5675 5676 5676 5677 5678 5679 5679 5680 5680 5681 5681 5681 5682 5682 5683 5683 5684 5684 5684 5684 5684 5684 5684 5684 5684 5683 5683 5683 5683 5682 5682 5682 5681 5681 5680 5679 5678 5677 5676 5675 5673 5672 5671 5670 5669 5668 5666 5665 5663 5661 5659 5657 5654 5652 5650 5648 5646 5643 5641 5639 5636 5633
5652 5652 5652 5653 5653 5654 5655 5656 5657 5658 5659 5660 5661 5662 5663 5664 5664 5665 5666 5667 5668 5670 5671 5672 5673 5674 5674 5675 5676 5676 5677 5677 5677 5678 5678 5679 5679 5680 5681 5681 5681 5681 5681 5681 5681 5681 5681 5681 5681 5681 5681 5681 5680 5680 5680 5679 5679 5678 5677 5676 5675 5674 5673 5672 5671 5670 5669 5668 5667 5665 5664 5662 5660 5658 5656 5654 5651 5649 5647 5645 5643 5641 5639 5636 5634 5631
5648 5649 5649 5650 5651 5652 5652 5654 5655 5656 5657 5658 5659 5660 5661 5662 5662 5663 5664 5664 5666 5667 5668 5669 5670 5671 5672 5673 5674 5674 5674 5675 5675 5675 5676 5676 5677 5678 5678 5679 5679 5679 5679 5679 5679 5679 5679 5679 5679 5678 5678 5678 5678 5678 5677 5677 5676 5676 5675 5674 5672 5671 5670 5669 5668 5667 5666 5666 5664 5663 5661 5659 5657 5655 5653 5651 5649 5647 5645 5643 5641 5639 5636 5634 5631 5629
5644 5645 5645 5646 5647 5649 5650 5652 5653 5654 5655 5656 5657 5658 5659 5660 5661 5661 5661 5662 5663 5664 5666 5666 5667 5668 5669 5671 5671 5672 5672 5672 5673 5673 5673 5674 5675 5675 5676 5676 5676 5676 5676 5676 5676 5676 5676 5676 5676 5676 5676 5676 5676 5676 5675 5675 5674 5673 5672 5671 5670 5668 5667 5666 5666 5665 5664 5663 5662 5660 5658 5656 5655 5652 5651 5648 5646 5644 5642 5641 5638 5636 5634 5632 5629 5626
5641 5642 5643 5644 5645 5646 5648 5649 5650 5651 5652 5653 5655 5656 5656 5657 5658 5659 5659 5660 5661 5662 5663 5664 5665 5666 5666 5667 5668 5669 5670 5670 5670 5671 5671 5671 5672 5673 5673 5674 5674 5674 5674 5674 5674 5674 5674 5674 5674 5674 5674 5674 5674 5673 5673 5672 5671 5671 5669 5668 5667 5666 5665 5665 5664 5663 5662 5661 5659 5658 5656 5654 5652 5650 5648 5646 5644 5642 5640 5638 5636 5634 5632 5630 5627 5624
5638 5640 5641 5642 5643 5644 5646 5647 5648 5649 5650 5651 5652 5653 5654 5655 5655 5656 5657 5658 5659 5659 5660 5661 5662 5663 5663 5664 5665 5666 5667 5667 5668 5668 5668 5669 5670 5670 5671 5671 5671 5672 5672 5672 5672 5672 5672 5672 5671 5671 5671 5671 5671 5671 5670 5670 5669 5668 5666 5666 5665 5664 5663 5663 5662 5661 5660 5658 5657 5655 5653 5651 5649 5647 5645 5643 5641 5640 5638 5636 5634 5632 5630 5627 5625 5622
5636 5636 5638 5639 5640 5641 5643 5644 5645 5646 5647 5648 5649 5650 5651 5651 5653 5654 5655 5656 5656 5657 5657 5658 5659 5660 5661 5661 5662 5663 5663 5664 5664 5664 5665 5666 5667 5668 5668 5669 5669 5669 5670 5670 5670 5670 5670 5670 5669 5669 5669 5669 5669 5668 5668 5667 5666 5665 5664 5663 5663 5662 5661 5661 5659 5658 5657 5656 5654 5652 5651 5649 5646 5645 5643 5641 5640 5638 5636 5634 5632 5630 5628 5625 5622 5619
5632 5633 5635 5636 5637 5638 5639 5640 5642 5643 5644 5645 5646 5647 5648 5648 5650 5651 5652 5653 5653 5654 5655 5656 5656 5657 5658 5658 5659 5659 5660 5660 5660 5661 5663 5664 5665 5666 5666 5666 5667 5667 5667 5667 5667 5667 5667 5667 5667 5667 5667 5666 5666 5666 5665 5664 5663 5662 5662 5661 5661 5660 5659 5658 5656 5656 5654 5653 5651 5650 5648 5646 5644 5642 5641 5639 5638 5636 5634 5632 5630 5628 5625 5623 5620 5617
5630 5631 5631 5633 5634 5636 5636 5637 5639 5640 5641 5642 5643 5645 5646 5646 5646 5647 5648 5649 5651 5651 5652 5653 5653 5654 5655 5656 5656 5656 5656 5657 5658 5659 5661 5661 5662 5663 5663 5664 5664 5665 5665 5665 5665 5665 5665 5665 5665 5664 5664 5664 5663 5663 5662 5661 5661 5660 5660 5659 5659 5657 5656 5655 5654 5653 5651 5650 5648 5647 5645 5643 5642 5640 5639 5637 5636 5634 5632 5631 5628 5626 5623 5620 5617 5615
5628 5629 5630 5630 5631 5632 5634 5635 5636 5637 5638 5639 5640 5641 5642 5643 5644 5645 5645 5646 5647 5648 5649 5650 5651 5651 5652 5653 5653 5653 5654 5655 5656 5657 5658 5659 5660 5660 5661 5661 5661 5662 5662 5662 5662 5662 5662 5662 5662 5662 5662 5661 5661 5660 5660 5659 5659 5658 5658 5657 5656 5654 5653 5652 5651 5650 5649 5647 5646 5644 5643 5641 5640 5638 5637 5636 5634 5632 5631 5628 5626 5623 5621 5618 5615 5612
5626 5627 5628 5629 5630 5630 5631 5632 5633 5634 5635 5636 5636 5638 5639 5640 5642 5642 5643 5643 5644 5645 5646 5647 5648 5648 5649 5649 5650 5651 5651 5652 5653 5654 5655 5656 5656 5657 5658 5658 5658 5659 5659 5659 5659 5659 5659 5659 5659 5659 5659 5659 5659 5658 5657 5657 5656 5656 5655 5654 5653 5651 5650 5649 5648 5647 5646 5645 5643 5642 5640 5639 5637 5636 5635 5634 5632 5631 5628 5626 5624 5621 5619 5616 5613 5610
5623 5625 5626 5627 5628 5628 5629 5629 5630 5631 5632 5633 5634 5635 5636 5637 5639 5639 5640 5641 5642 5643 5644 5644 5645 5646 5646 5646 5647 5648 5649 5650 5651 5652 5652 5653 5653 5654 5655 5655 5655 5656 5656 5656 5656 5656 5657 5657 5657 5657 5657 5657 5656 5656 5655 5655 5654 5653 5652 5651 5650 5648 5647 5647 5646 5645 5643 5642 5641 5639 5638 5637 5636 5635 5633 5632 5631 5628 5626 5624 5621 5619 5616 5614 5611 5608
5620 5622 5623 5624 5625 5625 5626 5626 5627 5628 5629 5630 5631 5632 5633 5634 5635 5636 5637 5638 5639 5640 5641 5642 5642 5643 5644 5644 5645 5645 5646 5647 5648 5649 5649 5650 5651 5651 5651 5652 5652 5653 5653 5654 5654 5654 5654 5655 5655 5655 5655 5654 5654 5653 5652 5652 5651 5650 5649 5648 5647 5646 5645 5644 5643 5642 5641 5640 5638 5637 5636 5635 5634 5633 5632 5630 5628 5626 5624 5622 5619 5617 5614 5611 5608 5605
5617 5618 5620 5621 5621 5622 5622 5623 5624 5626 5626 5627 5629 5630 5631 5631 5632 5633 5634 5635 5636 5637 5638 5639 5639 5640 5641 5641 5642 5642 5643 5644 5645 5646 5646 5647 5647 5648 5649 5649 5649 5650 5651 5651 5651 5651 5652 5652 5652 5652 5652 5652 5651 5650 5650 5649 5648 5647 5646 5645 5644 5643 5643 5642 5641 5640 5639 5637 5636 5635 5634 5633 5632 5631 5630 5628 5626 5624 5622 5620 5617 5615 5612 5609 5606 5603
5615 5616 5616 5617 5618 5619 5620 5621 5622 5623 5624 5625 5626 5627 5628 5629 5630 5631 5631 5632 5633 5634 5635 5635 5635 5636 5637 5638 5639 5640 5640 5641 5642 5643 5644 5644 5644 5645 5646 5646 5647 5647 5648 5649 5649 5649 5650 5650 5650 5650 5650 5649 5648 5647 5646 5646 5645 5644 5643 5642 5642 5641 5641 5640 5639 5638 5636 5636 5635 5634 5633 5632 5631 5630 5628 5626 5624 5622 5620 5618 5616 5613 5610 5607 5604 5601
5612 5612 5613 5615 5616 5616 5617 5618 5620 5621 5622 5623 5623 5624 5625 5626 5627 5628 5629 5630 5630 5631 5632 5633 5633 5633 5634 5635 5636 5637 5638 5638 5639 5640 5641 5641 5641 5642 5643 5644 5644 5645 5646 5646 5646 5647 5647 5647 5647 5647 5646 5645 5645 5644 5643 5642 5641 5641 5641 5640 5640 5639 5638 5637 5636 5636 5635 5634 5633 5632 5631 5630 5629 5628 5626 5624 5622 5620 5618 5616 5613 5611 5608 5605 5602 5598
5609 5610 5611 5612 5613 5614 5614 5616 5616 5618 5619 5620 5621 5621 5622 5623 5624 5625 5626 5627 5627 5628 5629 5629 5630 5631 5631 5632 5633 5634 5635 5635 5636 5637 5638 5638 5639 5640 5641 5641 5642 5642 5643 5644 5644 5645 5645 5644 5644 5643 5643 5642 5642 5641 5640 5640 5639 5639 5638 5638 5637 5637 5636 5635 5634 5634 5633 5632 5631 5631 5630 5629 5627 5626 5624 5622 5621 5618 5616 5614 5611 5609 5606 5603 5600 5596
5607 5607 5608 5610 5611 5611 5611 5613 5614 5615 5616 5617 5618 5619 5620 5620 5621 5622 5623 5624 5625 5625 5626 5626 5627 5628 5629 5630 5630 5631 5632 5632 5633 5634 5635 5636 5637 5637 5638 5639 5639 5640 5641 5641 5641 5642 5641 5641 5641 5641 5640 5640 5639 5638 5638 5637 5637 5637 5636 5636 5635 5635 5634 5633 5632 5632 5631 5631 5630 5629 5628 5627 5626 5624 5622 5621 5618 5616 5614 5612 5609 5607 5604 5601 5597 5594
5605 5606 5606 5607 5608 5608 5609 5610 5611 5612 5613 5614 5615 5616 5617 5618 5619 5619 5620 5621 5621 5622 5623 5623 5624 5625 5626 5627 5628 5628 5629 5630 5631 5632 5633 5634 5634 5635 5636 5636 5637 5637 5638 5639 5639 5639 5638 5638 5638 5638 5637 5637 5636 5636 5635 5635 5635 5635 5634 5634 5633 5633 5632 5631 5631 5630 5630 5629 5628 5627 5626 5625 5624 5622 5620 5619 5616 5615 5612 5610 5607 5605 5602 5599 5595 5591
5603 5603 5604 5605 5606 5606 5607 5608 5609 5610 5611 5611 5613 5614 5615 5616 5616 5616 5617 5618 5618 5619 5620 5621 5621 5623 5624 5625 5625 5626 5627 5628 5629 5630 5630 5631 5632 5632 5633 5634 5634 5635 5636 5636 5636 5636 5636 5636 5636 5635 5635 5634 5634 5633 5633 5633 5633 5633 5632 5632 5631 5631 5630 5630 5629 5628 5628 5627 5627 5626 5625 5623 5622 5620 5618 5616 5615 5612 5610 5608 5606 5603 5600 5596 5593 5589
5601 5602 5602 5603 5603 5604 5605 5606 5607 5608 5608 5610 5611 5612 5613 5613 5614 5614 5615 5616 5616 5617 5618 5619 5620 5620 5621 5622 5623 5624 5625 5626 5626 5627 5628 5629 5629 5630 5631 5631 5632 5633 5633 5634 5634 5634 5634 5633 5633 5632 5632 5631 5631 5631 5631 5631 5631 5631 5631 5630 5629 5629 5628 5628 5627 5627 5626 5626 5625 5624 5623 5621 5620 5618 5616 5615 5613 5611 5608 5606 5603 5601 5598 5594 5591 5587
5599 5599 5600 5601 5601 5602 5603 5604 5605 5606 5607 5608 5609 5610 5611 5611 5612 5612 5613 5614 5614 5615 5616 5617 5618 5618 5620 5621 5621 5622 5623 5624 5625 5625 5626 5626 5627 5628 5629 5629 5630 5631 5631 5631 5631 5631 5631 5631 5631 5630 5630 5630 5630 5630 5630 5629 5629 5629 5628 5628 5627 5627 5626 5626 5626 5625 5625 5624 5623 5622 5621 5620 5618 5616 5615 5613 5611 5609 5606 5604 5601 5599 5596 5592 5589 5585
5596 5597 5597 5598 5599 5600 5601 5602 5603 5604 5605 5606 5606 5607 5608 5609 5609 5610 5611 5612 5613 5614 5615 5616 5616 5617 5618 5619 5620 5621 5621 5622 5622 5623 5624 5624 5625 5626 5627 5627 5628 5628 5629 5629 5629 5629 5628 5628 5628 5628 5628 5628 5628 5628 5628 5627 5627 5627 5626 5626 5626 5625 5625 5625 5624 5624 5623 5622 5621 5620 5619 5618 5616 5615 5613 5611 5609 5607 5605 5602 5599 5596 5593 5590 5586 5583
5594 5595 5595 5596 5597 5598 5599 5600 5601 5601 5601 5602 5603 5604 5605 5606 5607 5608 5609 5610 5611 5612 5613 5614 5615 5616 5616 5617 5618 5619 5619 5620 5620 5621 5622 5623 5623 5624 5625 5626 5626 5626 5627 5627 5627 5626 5626 5626 5626 5626 5626 5626 5626 5626 5626 5626 5625 5625 5625 5624 5624 5624 5623 5623 5623 5622 5621 5621 5620 5618 5617 5616 5614 5613 5611 5609 5607 5605 5603 5600 5597 5594 5591 5588 5585 5581
5591 5592 5593 5594 5595 5596 5596 5596 5597 5598 5599 5600 5601 5602 5603 5604 5606 5607 5608 5608 5609 5610 5611 5612 5613 5614 5615 5615 5616 5616 5617 5618 5618 5619 5620 5621 5621 5622 5623 5624 5624 5625 5625 5625 5624 5624 5624 5624 5624 5624 5624 5624 5624 5624 5624 5623 5623 5623 5623 5622 5622 5622 5621 5621 5621 5621 5620 5619 5618 5616 5615 5614 5612 5611 5609 5607 5605 5603 5601 5598 5596 5592 5589 5586 5583 5579
5588 5589 5589 5590 5591 5592 5593 5594 5595 5596 5596 5598 5599 5600 5601 5602 5604 5605 5606 5607 5608 5609 5609 5610 5611 5612 5612 5613 5614 5615 5616 5616 5617 5617 5618 5619 5620 5620 5621 5622 5622 5622 5622 5622 5622 5622 5622 5622 5622 5622 5622 5622 5622 5622 5622 5621 5621 5621 5621 5621 5621 5620 5620 5620 5619 5619 5618 5617 5616 5615 5614 5612 5611 5609 5607 5606 5604 5601 5599 5596 5593 5591 5587 5584 5581 5577
5586 5586 5587 5588 5589 5589 5590 5591 5592 5593 5594 5596 5597 5598 5599 5601 5601 5602 5604 5605 5606 5607 5607 5608 5609 5610 5611 5611 5612 5613 5614 5614 5615 5616 5616 5617 5618 5618 5620 5620 5620 5620 5620 5619 5619 5619 5620 5620 5620 5620 5620 5620 5620 5620 5620 5620 5620 5619 5619 5619 5619 5619 5618 5618 5618 5617 5616 5615 5614 5613 5612 5611 5609 5607 5606 5604 5602 5600 5597 5595 5592 5589 5586 5582 5579 5576
5583 5583 5584 5585 5586 5587 5588 5589 5590 5591 5592 5593 5594 5596 5597 5598 5599 5600 5602 5603 5604 5605 5606 5606 5607 5608 5609 5609 5610 5611 5612 5612 5613 5614 5615 5615 5616 5616 5617 5617 5617 5617 5617 5617 5617 5617 5617 5618 5618 5618 5618 5618 5618 5618 5618 5618 5618 5617 5617 5617 5617 5617 5617 5616 5616 5615 5614 5613 5612 5611 5610 5609 5607 5606 5604 5602 5600 5598 5595 5593 5590 5587 5584 5581 5578 5575
5579 5580 5581 5582 5583 5584 5585 5586 5587 5588 5590 5591 5592 5593 5594 5595 5596 5598 5599 5601 5602 5602 5603 5604 5605 5606 5607 5608 5608 5609 5610 5611 5611 5612 5613 5613 5613 5614 5615 5614 5614 5614 5615 5615 5615 5615 5615 5616 5616 5616 5616 5616 5616 5616 5616 5616 5616 5616 5616 5616 5616 5615 5615 5615 5614 5613 5613 5612 5611 5610 5608 5607 5606 5604 5602 5600 5598 5596 5594 5591 5588 5586 5582 5579 5576 5574
5576 5577 5578 5579 5580 5581 5582 5583 5585 5586 5587 5588 5589 5590 5591 5592 5594 5595 5596 5598 5599 5600 5601 5602 5603 5604 5605 5606 5606 5607 5608 5609 5610 5610 5611 5611 5611 5611 5612 5612 5612 5612 5612 5613 5613 5613 5613 5613 5614 5614 5614 5614 5614 5614 5614 5614 5614 5614 5614 5614 5614 5614 5613 5613 5612 5612 5611 5610 5609 5608 5607 5605 5604 5602 5601 5599 5596 5594 5592 5589 5586 5584 5581 5578 5575 5573
5573 5574 5575 5576 5576 5578 5579 5580 5581 5582 5584 5585 5586 5587 5589 5590 5591 5593 5594 5595 5596 5598 5599 5600 5601 5602 5603 5603 5604 5605 5606 5606 5607 5607 5608 5608 5609 5609 5610 5610 5610 5610 5610 5611 5611 5611 5611 5611 5612 5612 5612 5612 5612 5612 5612 5612 5612 5612 5612 5612 5612 5612 5612 5611 5611 5610 5609 5608 5607 5606 5605 5604 5602 5601 5599 5597 5595 5593 5590 5588 5585 5582 5579 5577 5574 5572
5569 5570 5571 5572 5573 5574 5576 5577 5578 5580 5581 5582 5583 5585 5586 5587 5589 5590 5591 5593 5594 5595 5596 5597 5598 5599 5600 5601 5602 5602 5603 5604 5605 5605 5606 5606 5606 5607 5607 5607 5607 5608 5608 5608 5609 5609 5609 5609 5610 5610 5610 5610 5611 5611 5611 5611 5610 5611 5611 5611 5611 5611 5610 5610 5609 5608 5608 5607 5606 5604 5603 5602 5600 5599 5597 5595 5593 5591 5589 5586 5583 5581 5578 5576 5573 5571
5566 5567 5568 5569 5570 5571 5572 5574 5575 5576 5578 5579 5581 5582 5583 5585 5586 5587 5589 5590 5591 5592 5593 5595 5596 5597 5598 5598 5599 5600 5601 5601 5602 5602 5603 5603 5604 5605 5605 5605 5606 5606 5606 5606 5606 5607 5607 5607 5607 5608 5608 5608 5609 5609 5609 5609 5609 5609 5609 5609 5609 5609 5609 5608 5608 5607 5606 5605 5604 5603 5601 5600 5599 5597 5595 5594 5591 5589 5587 5585 5582 5579 5576 5574 5572 5571
5562 5563 5564 5566 5567 5568 5569 5571 5572 5573 5575 5576 5577 5579 5580 5581 5583 5585 5586 5587 5589 5590 5591 5591 5593 5594 5595 5596 5596 5597 5598 5599 5599 5600 5601 5601 5601 5602 5602 5603 5603 5604 5604 5604 5604 5605 5605 5605 5606 5606 5606 5606 5607 5607 5607 5607 5607 5607 5607 5607 5607 5607 5607 5606 5606 5605 5604 5603 5602 5601 5600 5598 5597 5595 5594 5592 5590 5588 5586 5583 5581 5578 5575 5573 5571 5570
5558 5559 5561 5562 5563 5564 5566 5567 5569 5570 5572 5573 5574 5576 5577 5579 5580 5581 5583 5584 5586 5587 5588 5589 5590 5591 5591 5592 5593 5594 5595 5596 5596 5597 5598 5598 5599 5600 5601 5601 5601 5602 5602 5602 5602 5603 5603 5603 5603 5604 5604 5605 5605 5605 5605 5606 5606 5606 5606 5606 5606 5606 5606 5605 5604 5604 5603 5601 5601 5599 5598 5596 5595 5594 5592 5590 5588 5586 5584 5581 5579 5576 5574 5572 5571 5569
5554 5555 5556 5558 5559 5561 5562 5564 5566 5567 5569 5570 5571 5573 5574 5576 5577 5578 5580 5581 5582 5584 5585 5586 5586 5587 5588 5589 5590 5591 5592 5593 5594 5594 5595 5596 5596 5597 5598 5598 5599 5599 5600 5600 5600 5601 5601 5601 5602 5602 5602 5603 5603 5603 5604 5604 5604 5605 5605 5605 5605 5604 5604 5603 5603 5602 5601 5600 5599 5597 5596 5595 5593 5592 5590 5588 5586 5585 5582 5580 5577 5575 5573 5571 5570 5569
5551 5551 5553 5554 5556 5557 5559 5560 5562 5563 5565 5566 5568 5570 5571 5572 5574 5575 5576 5578 5579 5581 5582 5583 5584 5585 5586 5586 5587 5588 5589 5590 5591 5592 5593 5593 5594 5595 5595 5596 5596 5597 5597 5598 5598 5599 5599 5599 5600 5601 5601 5601 5601 5602 5602 5603 5603 5603 5603 5603 5603 5603 5602 5602 5601 5600 5599 5598 5597 5596 5595 5593 5592 5590 5589 5587 5585 5583 5581 5578 5576 5574 5572 5571 5569 5568
5547 5548 5550 5551 5552 5554 5555 5556 5558 5560 5561 5563 5565 5566 5568 5569 5571 5572 5574 5575 5576 5577 5579 5580 5581 5582 5583 5584 5585 5586 5586 5587 5588 5589 5590 5591 5591 5592 5593 5593 5594 5594 5595 5595 5596 5596 5597 5598 5598 5599 5599 5600 5600 5600 5601 5601 5602 5602 5602 5602 5601 5601 5601 5600 5599 5598 5597 5596 5596 5594 5593 5591 5590 5589 5587 5585 5583 5581 5579 5577 5575 5573 5571 5570 5569 5568
5544 5545 5546 5548 5549 5551 5553 5554 5555 5556 5558 5559 5561 5563 5564 5566 5568 5569 5571 5572 5573 5575 5576 5577 5578 5579 5580 5581 5582 5583 5584 5584 5585 5586 5587 5588 5588 5589 5590 5591 5591 5592 5593 5593 5594 5594 5595 5596 5596 5597 5598 5598 5599 5599 5599 5600 5600 5600 5600 5600 5600 5600 5599 5598 5598 5597 5596 5595 5594 5593 5591 5590 5589 5587 5586 5584 5582 5580 5578 5576 5574 5572 5571 5569 5569 5568
5541 5542 5543 5544 5546 5547 5549 5550 5552 5553 5555 5556 5558 5559 5561 5562 5564 5566 5567 5569 5570 5571 5573 5574 5575 5576 5577 5578 5579 5580 5581 5581 5582 5583 5584 5585 5586 5587 5587 5588 5589 5590 5590 5591 5592 5592 5593 5594 5595 5596 5596 5597 5597 5597 5598 5598 5599 5599 5599 5598 5598 5598 5597 5597 5596 5595 5594 5593 5592 5591 5590 5588 5587 5586 5584 5582 5580 5578 5576 5574 5572 5571 5570 5569 5568 5568
5538 5539 5540 5541 5543 5544 5545 5547 5548 5550 5551 5553 5555 5556 5557 5559 5561 5562 5564 5566 5567 5569 5570 5571 5572 5573 5575 5576 5576 5577 5578 5579 5580 5581 5581 5582 5583 5584 5585 5586 5586 5587 5588 5589 5590 5591 5592 5593 5593 5594 5595 5595 5596 5596 5596 5596 5597 5597 5597 5597 5597 5596 5596 5595 5594 5593 5592 5591 5590 5589 5588 5587 5586 5584 5582 5581 5579 5577 5575 5573 5571 5570 5569 5568 5568 5567
5534 5536 5537 5538 5540 5541 5542 5544 5545 5546 5548 5550 5551 5552 5554 5556 5558 5559 5561 5563 5564 5566 5567 5568 5569 5571 5572 5572 5574 5575 5576 5576 5577 5578 5579 5580 5581 5582 5583 5584 5584 5585 5586 5587 5588 5589 5590 5591 5592 5592 5593 5594 5594 5594 5595 5595 5595 5595 5595 5595 5595 5595 5594 5593 5592 5592 5591 5590 5589 5588 5587 5586 5584 5582 5581 5579 5577 5575 5574 5572 5571 5569 5568 5568 5567 5567
5531 5533 5534 5536 5537 5538 5540 5541 5542 5543 5545 5546 5548 5549 5551 5553 5554 5556 5558 5559 5561 5562 5564 5565 5566 5567 5568 5569 5571 5572 5573 5574 5575 5576 5576 5577 5578 5580 5581 5581 5582 5583 5584 5585 5586 5587 5588 5589 5590 5591 5591 5592 5592 5593 5593 5593 5593 5594 5594 5593 5593 5593 5592 5591 5591 5590 5589 5588 5587 5586 5585 5584 5582 5581 5579 5577 5576 5574 5572 5571 5570 5569 5568 5567 5567 5567
5528 5530 5531 5532 5534 5535 5536 5537 5539 5540 5542 5543 5545 5546 5548 5550 5551 5553 5555 5556 5558 5559 5561 5562 5563 5564 5565 5566 5568 5569 5570 5571 5572 5573 5574 5575 5576 5577 5578 5579 5580 5581 5582 5583 5584 5585 5586 5587 5588 5589 5590 5590 5591 5591 5591 5592 5592 5592 5592 5592 5591 5591 5591 5590 5589 5588 5587 5586 5586 5585 5584 5582 5581 5580 5578 5576 5575 5573 5571 5570 5569 5568 5567 5567 5567 5567
5526 5527 5529 5530 5531 5531 5533 5534 5536 5537 5539 5540 5542 5543 5545 5546 5548 5550 5551 5553 5555 5556 5558 5559 5560 5561 5562 5564 5565 5566 5567 5568 5570 5571 5572 5573 5574 5575 5576 5576 5577 5579 5580 5581 5582 5583 5584 5585 5586 5587 5588 5589 5589 5589 5590 5590 5590 5590 5590 5590 5590 5590 5589 5588 5587 5586 5586 5585 5584 5583 5582 5581 5579 5578 5576 5575 5573 5572 5571 5569 5568 5567 5567 5566 5567 5567
5523 5525 5526 5526 5527 5528 5530 5531 5532 5534 5535 5537 5539 5540 5542 5543 5545 5547 5548 5550 5552 5553 5555 5556 5557 5559 5560 5561 5562 5564 5565 5566 5567 5568 5570 5571 5571 5572 5573 5574 5575 5576 5578 5579 5580 5581 5582 5583 5584 5585 5586 5587 5587 5587 5588 5589 5589 5589 5589 5588 5588 5588 5587 5586 5586 5585 5584 5583 5582 5581 5580 5579 5578 5576 5575 5574 5572 5571 5570 5569 5568 5567 5566 5566 5567 5567
5521 5521 5522 5523 5524 5525 5526 5527 5529 5531 5532 5534 5535 5537 5539 5540 5542 5544 5546 5547 5549 5551 5552 5553 5554 5556 5557 5558 5560 5561 5562 5563 5565 5566 5567 5568 5569 5570 5571 5572 5573 5575 5576 5577 5578 5580 5581 5582 5583 5583 5584 5585 5586 5586 5586 5587 5587 5587 5587 5586 5586 5586 5586 5585 5584 5583 5583 5582 5581 5580 5579 5577 5576 5575 5574 5572 5571 5570 5569 5568 5567 5566 5566 5566 5567 5567
5517 5518 5519 5520 5521 5522 5523 5525 5526 5528 5529 5531 5532 5534 5536 5537 5539 5541 5542 5544 5546 5547 5549 5550 5551 5553 5554 5556 5557 5558 5560 5561 5562 5563 5565 5566 5567 5568 5569 5570 5571 5573 5574 5576 5577 5578 5579 5580 5581 5582 5582 5583 5584 5584 5585 5585 5585 5585 5585 5585 5585 5584 5584 5583 5582 5582 5581 5580 5579 5578 5577 5576 5575 5574 5572 5571 5570 5569 5568 5567 5566 5566 5566 5566 5567 5567
5514 5515 5516 5517 5518 5519 5521 5522 5524 5526 5527 5529 5530 5532 5533 5535 5536 5538 5539 5541 5543 5544 5546 5547 5549 5550 5551 5553 5554 5556 5557 5558 5560 5561 5562 5563 5564 5566 5567 5568 5570 5571 5573 5574 5575 5576 5578 5579 5579 5580 5581 5581 5582 5582 5582 5583 5583 5584 5583 5583 5583 5582 5582 5581 5581 5580 5579 5579 5578 5576 5576 5575 5573 5572 5571 5571 5569 5568 5567 5566 5566 5566 5566 5566 5567 5567